Weather History for Valley City, ND

Change the Weather History Date:

Thursday, May 2, 2013

  Actual Average (KJMS) Record (KJMS)
Temperature  
Mean Temperature 34 °F 50 °F  
Max Temperature 44 °F 63 °F 94 °F (1955)
Min Temperature 23 °F 37 °F 11 °F (1907)
Degree Days  
Heating Degree Days 32 15  
Month to date heating degree days 30  
Since 1 July heating degree days 8624  
Cooling Degree Days 0 0  
Month to date cooling degree days 0  
Year to date cooling degree days 2  
Moisture  
Dew Point 25 °F    
Average Humidity 76    
Maximum Humidity 100    
Minimum Humidity 43    
Precipitation  
Precipitation 0.00 in 0.07 in 1.24 in (1950)
Month to date precipitation 0.14  
Year to date precipitation 3.03  
Sea Level Pressure  
Sea Level Pressure 30.60 in    
Wind  
Wind Speed 7 mph (NNE)    
Max Wind Speed 18 mph    
Max Gust Speed 25 mph    
Visibility 10 miles    
Events      
T = Trace of Precipitation, MM = Missing Value Source: NWS Daily Summary

Daily Weather History Graph

Daily Weather History Graph

Search for Another Location

Airport:

Trip Planner

Search our weather history database for the weather conditions in past years. The results will help you decide how hot, cold, wet, or windy it might be!

Date:

Astronomy

May. 02, 2013 Rise Set
Actual Time 6:14 AM CDT 8:44 PM CDT
Civil Twilight 5:40 AM CDT 9:18 PM CDT
Nautical Twilight 4:57 AM CDT 10:01 PM CDT
Astronomical Twilight 4:09 AM CDT 10:50 PM CDT
Moon 2:31 AM CDT (5/2) 1:08 PM CDT (5/2)
Length of Visible Light 15h 37m
Length of Day
14h 29m
Waning Gibbous, 47% of the Moon is Illuminated
May 2
Waning Gibbous
May 9
New
May 17
First Quarter
May 24
Full
May 31
Last Quarter

Hourly Weather History & Observations

Time (CDT) Temp. Windchill Dew Point Humidity Pressure Visibility Wind Dir Wind Speed Gust Speed Precip Events Conditions
12:15 AM 28.4 °F 23.3 °F 23.0 °F 80% 30.58 in 10.0 mi North 4.6 mph - N/A   Clear
12:35 AM 26.6 °F 19.1 °F 23.0 °F 86% 30.58 in 10.0 mi NW 6.9 mph - N/A   Clear
12:55 AM 28.4 °F 21.2 °F 23.0 °F 80% 30.59 in 10.0 mi NW 6.9 mph - N/A   Clear
1:15 AM 26.6 °F 20.0 °F 23.0 °F 86% 30.58 in 10.0 mi NW 5.8 mph - N/A   Clear
1:35 AM 26.6 °F 18.2 °F 23.0 °F 86% 30.59 in 10.0 mi NW 8.1 mph - N/A   Clear
1:55 AM 24.8 °F 16.1 °F 23.0 °F 93% 30.59 in 10.0 mi NW 8.1 mph - N/A   Clear
2:15 AM 24.8 °F 16.9 °F 23.0 °F 93% 30.59 in 10.0 mi NW 6.9 mph - N/A   Clear
2:35 AM 24.8 °F 16.9 °F 23.0 °F 93% 30.59 in 10.0 mi NNW 6.9 mph - N/A   Clear
2:55 AM 26.6 °F 22.6 °F 24.8 °F 93% 30.60 in 10.0 mi North 3.5 mph - N/A   Clear
3:15 AM 23.0 °F - 23.0 °F 100% 30.60 in 10.0 mi Calm Calm - N/A   Clear
3:35 AM 24.8 °F - 24.8 °F 100% 30.60 in 10.0 mi Calm Calm - N/A   Clear
3:55 AM 26.6 °F 22.6 °F 24.8 °F 93% 30.60 in 10.0 mi North 3.5 mph - N/A   Clear
4:15 AM 24.8 °F 19.1 °F 23.0 °F 93% 30.61 in 10.0 mi North 4.6 mph - N/A   Clear
4:35 AM 24.8 °F 20.5 °F 24.8 °F 100% 30.62 in 10.0 mi North 3.5 mph - N/A   Clear
4:55 AM 24.8 °F 19.1 °F 24.8 °F 100% 30.62 in 10.0 mi North 4.6 mph - N/A   Clear
5:15 AM 24.8 °F 16.9 °F 24.8 °F 100% 30.62 in 10.0 mi North 6.9 mph - N/A   Clear
5:35 AM 24.8 °F 19.1 °F 24.8 °F 100% 30.62 in 10.0 mi North 4.6 mph - N/A   Clear
5:55 AM 23.0 °F 15.8 °F 23.0 °F 100% 30.64 in 10.0 mi North 5.8 mph - N/A   Clear
6:15 AM 24.8 °F 19.1 °F 24.8 °F 100% 30.65 in 9.0 mi North 4.6 mph - N/A   Clear
6:35 AM 24.8 °F 19.1 °F 24.8 °F 100% 30.65 in 9.0 mi NNE 4.6 mph - N/A   Clear
6:55 AM 24.8 °F 17.9 °F 24.8 °F 100% 30.65 in 9.0 mi North 5.8 mph - N/A   Clear
7:15 AM 26.6 °F 21.2 °F 26.6 °F 100% 30.66 in 8.0 mi NNE 4.6 mph - N/A   Clear
7:35 AM 26.6 °F 21.2 °F 26.6 °F 100% 30.66 in 8.0 mi NNE 4.6 mph - N/A   Clear
7:55 AM 28.4 °F 23.3 °F 28.4 °F 100% 30.68 in 7.0 mi NE 4.6 mph - N/A   Clear
8:15 AM 28.4 °F 23.3 °F 28.4 °F 100% 30.68 in 8.0 mi ENE 4.6 mph - N/A   Scattered Clouds
8:35 AM 30.2 °F 25.4 °F 30.2 °F 100% 30.69 in 9.0 mi ENE 4.6 mph - N/A   Mostly Cloudy
8:55 AM 30.2 °F - 30.2 °F 100% 30.69 in 10.0 mi Calm Calm - N/A   Overcast
9:15 AM 32.0 °F - 28.4 °F 87% 30.69 in 10.0 mi Calm Calm - N/A   Mostly Cloudy
9:35 AM 32.0 °F - 28.4 °F 87% 30.68 in 10.0 mi Calm Calm - N/A   Overcast
9:55 AM 32.0 °F 28.7 °F 28.4 °F 87% 30.68 in 10.0 mi NNE 3.5 mph - N/A   Overcast
10:15 AM 32.0 °F 24.8 °F 26.6 °F 80% 30.68 in 10.0 mi NNW 8.1 mph - N/A   Mostly Cloudy
10:35 AM 33.8 °F 27.0 °F 26.6 °F 75% 30.68 in 10.0 mi North 8.1 mph - N/A   Mostly Cloudy
10:55 AM 35.6 °F 27.5 °F 26.6 °F 70% 30.68 in 10.0 mi North 11.5 mph - N/A   Scattered Clouds
11:15 AM 35.6 °F 29.2 °F 24.8 °F 65% 30.67 in 10.0 mi North 8.1 mph 25.3 mph N/A   Scattered Clouds
11:35 AM 37.4 °F 29.3 °F 23.0 °F 56% 30.67 in 10.0 mi North 12.7 mph 16.1 mph N/A   Scattered Clouds
11:55 AM 37.4 °F 28.9 °F 23.0 °F 56% 30.66 in 10.0 mi North 13.8 mph 20.7 mph N/A   Partly Cloudy
12:15 PM 37.4 °F 29.8 °F 24.8 °F 60% 30.66 in 10.0 mi North 11.5 mph - N/A   Mostly Cloudy
12:35 PM 39.2 °F 32.5 °F 24.8 °F 56% 30.65 in 10.0 mi North 10.4 mph 18.4 mph N/A   Mostly Cloudy
12:55 PM 39.2 °F 33.0 °F 24.8 °F 56% 30.64 in 10.0 mi North 9.2 mph 17.3 mph N/A   Mostly Cloudy
1:15 PM 41.0 °F 34.3 °F 23.0 °F 49% 30.63 in 8.0 mi NNE 11.5 mph 16.1 mph N/A   Mostly Cloudy
1:35 PM 42.8 °F 36.6 °F 23.0 °F 46% 30.62 in 10.0 mi NNW 11.5 mph 18.4 mph N/A   Mostly Cloudy
1:55 PM 42.8 °F 35.4 °F 23.0 °F 46% 30.61 in 10.0 mi North 15.0 mph 21.9 mph N/A   Mostly Cloudy
2:15 PM 41.0 °F 33.1 °F 23.0 °F 49% 30.60 in 10.0 mi North 15.0 mph 19.6 mph N/A   Scattered Clouds
2:35 PM 42.8 °F 35.1 °F 23.0 °F 46% 30.59 in 10.0 mi North 16.1 mph 19.6 mph N/A   Partly Cloudy
2:55 PM 44.6 °F 38.4 °F 23.0 °F 43% 30.59 in 10.0 mi NNE 12.7 mph 18.4 mph N/A   Scattered Clouds
3:15 PM 44.6 °F 38.1 °F 23.0 °F 43% 30.58 in 10.0 mi NNE 13.8 mph 21.9 mph N/A   Partly Cloudy
3:35 PM 44.6 °F 38.1 °F 23.0 °F 43% 30.58 in 10.0 mi NNE 13.8 mph 20.7 mph N/A   Partly Cloudy
3:55 PM 44.6 °F 38.4 °F 23.0 °F 43% 30.57 in 10.0 mi North 12.7 mph 20.7 mph N/A   Clear
4:15 PM 44.6 °F 36.9 °F 23.0 °F 43% 30.56 in 10.0 mi NNE 18.4 mph - N/A   Scattered Clouds
4:35 PM 44.6 °F 38.8 °F 23.0 °F 43% 30.56 in 10.0 mi NNE 11.5 mph 19.6 mph N/A   Scattered Clouds
4:55 PM 44.6 °F 39.2 °F 23.0 °F 43% 30.56 in 10.0 mi North 10.4 mph - N/A   Partly Cloudy
5:15 PM 44.6 °F 38.8 °F 23.0 °F 43% 30.55 in 10.0 mi North 11.5 mph 19.6 mph N/A   Partly Cloudy
5:35 PM 44.6 °F 38.8 °F 23.0 °F 43% 30.55 in 10.0 mi NNE 11.5 mph 18.4 mph N/A   Partly Cloudy
5:55 PM 44.6 °F 39.2 °F 24.8 °F 46% 30.54 in 10.0 mi NE 10.4 mph 17.3 mph N/A   Mostly Cloudy
6:15 PM 42.8 °F 36.6 °F 24.8 °F 49% 30.54 in 10.0 mi NE 11.5 mph 17.3 mph N/A   Mostly Cloudy
6:55 PM 41.0 °F 34.3 °F 24.8 °F 53% 30.54 in 10.0 mi NE 11.5 mph 17.3 mph N/A   Mostly Cloudy
7:15 PM 41.0 °F 34.7 °F 24.8 °F 53% 30.54 in 10.0 mi NE 10.4 mph - N/A   Scattered Clouds
7:35 PM 39.2 °F 32.0 °F 26.6 °F 61% 30.55 in 10.0 mi NE 11.5 mph - N/A   Scattered Clouds
7:55 PM 39.2 °F 32.5 °F 26.6 °F 61% 30.55 in 10.0 mi ENE 10.4 mph - N/A   Partly Cloudy
8:15 PM 37.4 °F 30.3 °F 28.4 °F 70% 30.55 in 10.0 mi ENE 10.4 mph - N/A   Clear
8:35 PM 35.6 °F 29.9 °F 28.4 °F 75% 30.55 in 10.0 mi NE 6.9 mph - N/A   Clear
8:55 PM 33.8 °F 27.0 °F 28.4 °F 81% 30.55 in 10.0 mi ENE 8.1 mph - N/A   Clear
9:15 PM 32.0 °F 26.4 °F 26.6 °F 80% 30.55 in 10.0 mi East 5.8 mph - N/A   Clear
9:35 PM 32.0 °F 25.6 °F 26.6 °F 80% 30.55 in 10.0 mi East 6.9 mph - N/A   Clear
9:55 PM 30.2 °F 25.4 °F 26.6 °F 86% 30.55 in 10.0 mi East 4.6 mph - N/A   Clear
10:15 PM 28.4 °F 22.2 °F 26.6 °F 93% 30.54 in 10.0 mi East 5.8 mph - N/A   Clear
10:35 PM 28.4 °F 24.6 °F 26.6 °F 93% 30.54 in 10.0 mi ESE 3.5 mph - N/A   Clear
10:55 PM 28.4 °F 23.3 °F 26.6 °F 93% 30.54 in 10.0 mi East 4.6 mph - N/A   Clear
11:15 PM 26.6 °F 21.2 °F 26.6 °F 100% 30.53 in 10.0 mi ENE 4.6 mph - N/A   Clear
11:35 PM 26.6 °F 21.2 °F 26.6 °F 100% 30.53 in 10.0 mi East 4.6 mph - N/A   Clear
11:55 PM 26.6 °F 21.2 °F 26.6 °F 100% 30.52 in 10.0 mi East 4.6 mph - N/A   Clear